Home   Weather   Flagstaff   Past weeks
Flag for USA

Past Weather in Flagstaff, Arizona, USA — Yesterday and Last 2 Weeks

Now
35 °F

Light snow. Fog.


Feels Like: 23 °F
Forecast: 45 / 30 °F
Wind: 23 mph from Southwest

Location: Flagstaff Pulliam Airport

Current Time: May 23, 2019 at 12:27:51 pm

Latest Report: May 23, 2019 at 11:57 am


Visibility: 5 mi

Pressure: 29.92 "Hg (23.04 "Hg at 2103m altitude)

Humidity: 92%

Dew Point: 33 °F

Location of FlagstaffLocation

Past Weather in Flagstaff — Graph

°F

Flagstaff Temperature Yesterday

Maximum temperature yesterday: 45 °F (at 3:57 pm)
Minimum temperature yesterday: 33 °F (at 10:25 pm)
Average temperature yesterday: 38 °F

High & Low Weather Summary for the Past Weeks

 TemperatureHumidityPressure
High69 °F (May 15, 3:57 pm)100% (May 9, 4:23 pm)30.10 "Hg (May 9, 4:23 pm)
Low27 °F (May 18, 4:57 am)23% (May 16, 2:57 pm)29.53 "Hg (May 22, 1:57 am)
Average44 °F68%29.83 "Hg
* Reported May 8 11:57 am — May 23 11:24 am, Flagstaff. Weather by CustomWeather, © 2019

Note: Actual official high and low records may vary slightly from our data, if they occured in-between our weather recording intervals... More about our weather records

Advertising

Flagstaff Weather History for the Previous 24 Hours

Scroll right to see more
 ConditionsComfort  
Time TempWeatherWind HumidityBarometerVisibility
11:24 am
Thu, May 23
34 °FLight snow. Fog.17 mph92%29.98 "Hg1 mi
11:10 am33 °FSnow. Fog.17 mph92%29.98 "Hg1 mi
10:57 am34 °FLight snow. Fog.17 mph92%29.91 "Hg1 mi
10:40 am34 °FLight snow. Fog.20 mph92%29.95 "Hg2 mi
10:16 am34 °FLight snow. Fog.17 mph88%29.94 "Hg6 mi
10:00 am32 °FSnow. Fog.15 mph88%29.93 "Hg1 mi
9:36 am33 °FFog.14 mph92%29.92 "Hg2 mi
9:20 am33 °FLight snow. Fog.15 mph88%29.91 "Hg3 mi
9:11 am32 °FLight snow. Ice fog.16 mph92%29.90 "Hg1 mi
8:57 am32 °FLight snow. Ice fog.17 mph88%29.82 "Hg1 mi
8:18 am30 °FLight snow. Ice fog.20 mph92%29.88 "Hg1 mi
7:57 am31 °FLight snow. Ice fog.14 mph92%29.80 "Hg2 mi
7:02 am30 °FMostly cloudy.10 mph92%29.86 "Hg10 mi
6:32 am30 °FLight snow. Ice fog.7 mph92%29.85 "Hg3 mi
6:23 am30 °FLight snow. Ice fog.6 mph92%29.84 "Hg1 mi
5:57 am30 °FHeavy snow. Ice fog.9 mph92%29.75 "Hg0 mi
5:38 am30 °FHeavy snow. Ice fog.9 mph92%29.82 "Hg0 mi
4:57 am31 °FLight snow. Ice fog.13 mph92%29.68 "Hg1 mi
4:31 am33 °FLight snow. Fog.5 mph92%29.77 "Hg2 mi
4:20 am34 °FOvercast.6 mph88%29.77 "Hg10 mi
3:57 am34 °FPartly cloudy.8 mph88%29.65 "Hg10 mi
3:18 am33 °FPartly cloudy.5 mph92%29.76 "Hg10 mi
2:57 am33 °FLight snow. Mostly cloudy.3 mph92%29.65 "Hg8 mi
2:07 am34 °FLow clouds.5 mph92%29.78 "Hg10 mi
1:57 am33 °FLow clouds.No wind96%29.68 "Hg10 mi
1:35 am33 °FMostly cloudy.No wind92%29.79 "Hg10 mi
1:18 am33 °FLight snow. Fog.No wind96%29.80 "Hg4 mi
1:06 am33 °FLight snow. Fog.3 mph96%29.80 "Hg3 mi
11:57 pm
Wed, May 22
34 °FMostly cloudy.No wind92%29.69 "Hg9 mi
11:28 pm34 °FLight snow. Mostly cloudy.No wind92%29.81 "Hg7 mi
10:57 pm33 °FOvercast.No wind96%29.70 "Hg10 mi
10:43 pm33 °FLight snow. Fog.3 mph92%29.80 "Hg6 mi
10:25 pm33 °FLight snow. Fog.3 mph92%29.81 "Hg5 mi
9:57 pm34 °FLight snow. Fog.8 mph88%29.74 "Hg5 mi
8:57 pm38 °FMostly cloudy.7 mph68%29.70 "Hg10 mi
7:57 pm39 °FOvercast.5 mph62%29.67 "Hg10 mi
6:57 pm42 °FPartly sunny.9 mph53%29.66 "Hg10 mi
5:57 pm42 °FOvercast.10 mph51%29.65 "Hg10 mi
4:57 pm44 °FCloudy.13 mph51%29.63 "Hg10 mi
3:57 pm45 °FMore clouds than sun.25 mph48%29.61 "Hg10 mi
2:57 pm44 °FBroken clouds.22 mph55%29.61 "Hg10 mi
1:57 pm43 °FPartly sunny.20 mph60%29.61 "Hg10 mi
12:57 pm42 °FMore clouds than sun.13 mph62%29.60 "Hg10 mi
Weather by CustomWeather, © 2019

See weather overview